Home > Weather > Rennes > Past weeks

Flag for France Past Weather in Rennes, Brittany, France — Yesterday and Last 2 Weeks

Now
55 °F

Partly cloudy.


Feels Like: 53 °F
Forecast: 55 / 65 °F
Wind: 9 mph from Northwest

Location: Rennes Airport

Current Time: May 31, 2016 at 12:14:31 AM

Latest Report: May 30, 2016 at 11:30 PM


Visibility: N/A

Pressure: 30.07 "Hg

Humidity: 88%

Dew Point: 52 °F

Location of RennesLocation

Past Weather in Rennes — Graph

°F

Rennes Temperature Yesterday

Maximum temperature yesterday: 66 °F (at 3:30 PM)
Minimum temperature yesterday: 54 °F (at 5:30 AM)
Average temperature yesterday: 60 °F

High & Low Weather Summary for the Past Weeks

 TemperatureHumidityPressure
High73 °F (May 21, 3:00 PM)100% (May 17, 6:30 AM)30.24 "Hg (May 17, 6:30 AM)
Low43 °F (May 17, 6:30 AM)45% (May 23, 7:00 PM)29.74 "Hg (May 18, 12:30 PM)
Average58 °F78%29.97 "Hg
* Reported May 15 11:00 PM — May 30 11:00 PM, Rennes, Weather by CustomWeather, © 2016

Note: Actual official high and low records may vary slightly from our data, if they occured in-between our weather recording intervals... More about our weather records

Advertising

Rennes Weather History for the Previous 24 Hours

Scroll right to see more
 ConditionsComfort  
Time TempWeatherWind HumidityBarometerVisibility
11:00 PM
Mon, May 30
55 °FPartly cloudy.9 mph88%30.07 "HgN/A
10:30 PM57 °FCool.12 mph82%30.04 "HgN/A
10:00 PM57 °FPartly sunny.13 mph82%30.04 "HgN/A
9:30 PM57 °FPartly sunny.12 mph82%30.01 "HgN/A
9:00 PM59 °FPartly sunny.12 mph77%30.01 "HgN/A
8:30 PM61 °FPartly sunny.12 mph72%30.01 "HgN/A
8:00 PM61 °FScattered clouds.14 mph72%30.01 "HgN/A
7:30 PM63 °FPassing clouds.13 mph68%30.01 "HgN/A
7:00 PM64 °FScattered clouds.16 mph64%29.98 "Hg6 mi
6:30 PM64 °FBroken clouds.13 mph68%29.98 "Hg4 mi
6:00 PM64 °FPartly sunny.15 mph68%29.98 "Hg4 mi
5:30 PM64 °FPartly sunny.14 mph68%29.98 "Hg4 mi
5:00 PM66 °FScattered clouds.14 mph68%29.98 "Hg4 mi
4:30 PM66 °FScattered clouds.15 mph68%29.98 "Hg4 mi
4:00 PM66 °FPartly sunny.15 mph64%29.98 "Hg4 mi
3:30 PM66 °FPartly sunny.14 mph68%29.98 "Hg4 mi
3:00 PM64 °FMore clouds than sun.15 mph73%29.98 "Hg4 mi
2:30 PM64 °FPartly sunny.14 mph73%29.98 "Hg4 mi
2:00 PM64 °FPartly sunny.13 mph73%29.98 "Hg4 mi
1:00 PM64 °FScattered clouds.14 mph73%29.98 "Hg4 mi
12:30 PM64 °FScattered clouds.13 mph73%29.95 "Hg4 mi
12:00 PM63 °FPartly sunny.14 mph77%29.95 "Hg5 mi
11:30 AM63 °FBroken clouds.13 mph73%29.95 "Hg5 mi
11:00 AM63 °FPartly sunny.12 mph73%29.95 "Hg6 mi
10:30 AM63 °FPassing clouds.12 mph77%29.95 "Hg6 mi
10:00 AM61 °FScattered clouds.12 mph83%29.95 "Hg6 mi
9:30 AM59 °FPartly sunny.12 mph88%29.95 "HgN/A
9:00 AM59 °FPartly sunny.12 mph82%29.95 "HgN/A
8:30 AM57 °FPartly sunny.9 mph88%29.92 "Hg5 mi
8:00 AM57 °FCool.8 mph88%29.92 "Hg4 mi
7:30 AM55 °FFog.8 mph94%29.92 "Hg3 mi
7:00 AM55 °FCool.8 mph94%29.92 "Hg4 mi
6:30 AM55 °FCool.6 mph94%29.92 "Hg4 mi
6:00 AM54 °FCool.6 mph94%29.92 "Hg4 mi
5:30 AM54 °FCool.6 mph94%29.92 "Hg4 mi
5:00 AM55 °FCool.8 mph88%29.92 "Hg6 mi
4:30 AM55 °FCool.8 mph82%29.92 "HgN/A
4:00 AM55 °FCool.8 mph82%29.92 "HgN/A
3:30 AM55 °FCool.9 mph82%29.92 "HgN/A
3:00 AM55 °FOvercast.8 mph82%29.92 "HgN/A
2:30 AM55 °FMostly cloudy.10 mph88%29.92 "HgN/A
2:00 AM55 °FPassing clouds.8 mph88%29.92 "Hg6 mi
1:30 AM57 °FMostly cloudy.8 mph82%29.92 "HgN/A
1:00 AM57 °FPartly cloudy.9 mph82%29.92 "Hg6 mi
12:30 AM57 °FPassing clouds.9 mph82%29.92 "HgN/A
12:00 AM59 °FOvercast.9 mph77%29.92 "HgN/A
Weather by CustomWeather, © 2016

See weather overviewHow to use our weather pages